QPF
0.02 0.03 0.04 0.08 0.11 0.11 0.14 0.11 0.09 0.12 0.13 0.10 0.10 0.13 0.17 0.16 0.12 0.13 0.11 0.07 0.06 0.06 0.05 0.05 0.04 0.04 0.03 0.04 0.04 0.05 0.03 0.03 0.03 0.04 0.04 0.04 0.03 0.03 0.04 0.04 0.03 0.04 0.03
0.02 0.04 0.05 0.07 0.10 0.13 0.15 0.16 0.13 0.15 0.14 0.11 0.10 0.12 0.13 0.14 0.10 0.12 0.11 0.07 0.05 0.05 0.05 0.05 0.05 0.04 0.05 0.05 0.04 0.04 0.03 0.03 0.03 0.03 0.03 0.02 0.02 0.02 0.03 0.03 0.03 0.04 0.03
0.03 0.04 0.05 0.07 0.12 0.20 0.25 0.23 0.20 0.20 0.17 0.14 0.15 0.16 0.15 0.16 0.13 0.09 0.07 0.05 0.05 0.05 0.04 0.04 0.04 0.04 0.05 0.05 0.03 0.02 0.02 0.03 0.03 0.02 0.02 0.00 0.00 0.01 0.01 0.01 0.02 0.04 0.04
0.03 0.03 0.05 0.09 0.22 0.31 0.25 0.19 0.19 0.20 0.20 0.19 0.14 0.13 0.10 0.09 0.08 0.07 0.06 0.07 0.05 0.04 0.05 0.04 0.04 0.05 0.05 0.04 0.03 0.02 0.02 0.03 0.04 0.03 0.01 0.01 0.00 0.01 0.00 0.01 0.01 0.03 0.03
0.03 0.03 0.06 0.16 0.22 0.23 0.16 0.15 0.16 0.16 0.17 0.16 0.15 0.13 0.10 0.09 0.10 0.10 0.07 0.07 0.07 0.06 0.06 0.06 0.04 0.04 0.05 0.04 0.03 0.03 0.03 0.03 0.03 0.02 0.02 0.02 0.01 0.01 0.01 0.00 0.00 0.01 0.01
0.03 0.04 0.08 0.13 0.11 0.12 0.11 0.12 0.14 0.13 0.11 0.13 0.14 0.11 0.09 0.10 0.11 0.09 0.07 0.06 0.08 0.09 0.07 0.05 0.05 0.04 0.04 0.03 0.04 0.05 0.05 0.04 0.03 0.03 0.02 0.02 0.01 0.01 0.01 0.00 0.00 0.00 0.00
0.03 0.05 0.06 0.07 0.09 0.11 0.11 0.11 0.11 0.11 0.10 0.11 0.15 0.14 0.14 0.13 0.11 0.09 0.08 0.08 0.07 0.06 0.06 0.05 0.04 0.03 0.03 0.04 0.05 0.05 0.03 0.03 0.02 0.03 0.02 0.02 0.01 0.01 0.00 0.00 0.00 0.00 0.00
0.03 0.04 0.06 0.07 0.09 0.13 0.15 0.11 0.09 0.08 0.09 0.09 0.12 0.14 0.15 0.16 0.14 0.11 0.10 0.08 0.07 0.06 0.07 0.07 0.05 0.05 0.05 0.05 0.05 0.03 0.03 0.03 0.02 0.02 0.03 0.03 0.02 0.02 0.02 0.01 0.01 0.00 0.00
0.05 0.07 0.06 0.08 0.10 0.10 0.15 0.11 0.07 0.08 0.09 0.11 0.12 0.14 0.15 0.17 0.17 0.14 0.12 0.09 0.08 0.08 0.08 0.07 0.07 0.06 0.06 0.05 0.05 0.04 0.04 0.04 0.03 0.03 0.04 0.04 0.03 0.03 0.02 0.02 0.02 0.01 0.00
0.03 0.05 0.10 0.08 0.09 0.07 0.06 0.05 0.05 0.06 0.07 0.09 0.09 0.08 0.12 0.16 0.17 0.15 0.11 0.09 0.10 0.10 0.09 0.09 0.08 0.07 0.06 0.05 0.06 0.05 0.05 0.04 0.03 0.04 0.04 0.03 0.03 0.03 0.03 0.03 0.03 0.02 0.02
0.01 0.02 0.05 0.05 0.06 0.05 0.04 0.04 0.04 0.04 0.04 0.06 0.09 0.06 0.06 0.09 0.08 0.09 0.12 0.12 0.11 0.09 0.08 0.09 0.09 0.07 0.06 0.07 0.07 0.05 0.06 0.04 0.04 0.05 0.04 0.04 0.04 0.04 0.04 0.04 0.03 0.03 0.03
0.03 0.03 0.03 0.05 0.06 0.05 0.04 0.04 0.03 0.03 0.03 0.04 0.10 0.10 0.05 0.06 0.06 0.08 0.11 0.13 0.13 0.11 0.10 0.09 0.08 0.07 0.06 0.07 0.08 0.07 0.07 0.06 0.05 0.05 0.05 0.04 0.04 0.04 0.05 0.06 0.06 0.05 0.05
0.03 0.03 0.04 0.05 0.05 0.04 0.04 0.04 0.03 0.02 0.02 0.02 0.09 0.10 0.05 0.04 0.05 0.07 0.09 0.10 0.11 0.12 0.09 0.07 0.06 0.07 0.07 0.07 0.07 0.07 0.08 0.09 0.09 0.09 0.10 0.09 0.07 0.04 0.05 0.05 0.06 0.07 0.07
0.02 0.03 0.04 0.06 0.04 0.03 0.03 0.03 0.03 0.02 0.01 0.03 0.09 0.10 0.05 0.03 0.04 0.05 0.07 0.08 0.09 0.09 0.09 0.07 0.08 0.10 0.10 0.10 0.09 0.08 0.09 0.11 0.11 0.10 0.10 0.10 0.09 0.07 0.06 0.05 0.06 0.07 0.08
0.02 0.02 0.03 0.05 0.06 0.03 0.02 0.02 0.02 0.02 0.02 0.02 0.04 0.05 0.05 0.03 0.03 0.04 0.06 0.06 0.07 0.06 0.08 0.09 0.10 0.11 0.11 0.10 0.11 0.11 0.11 0.12 0.11 0.11 0.11 0.11 0.12 0.11 0.10 0.09 0.08 0.09 0.08
0.01 0.01 0.02 0.02 0.03 0.02 0.02 0.02 0.02 0.02 0.02 0.02 0.02 0.02 0.02 0.02 0.03 0.04 0.05 0.06 0.06 0.07 0.08 0.10 0.11 0.11 0.12 0.14 0.13 0.13 0.15 0.17 0.18 0.17 0.16 0.16 0.16 0.16 0.15 0.15 0.15 0.16 0.16
0.01 0.01 0.01 0.01 0.01 0.01 0.01 0.02 0.02 0.02 0.02 0.02 0.01 0.01 0.01 0.01 0.03 0.03 0.03 0.05 0.05 0.05 0.07 0.09 0.09 0.09 0.09 0.10 0.12 0.14 0.13 0.13 0.14 0.14 0.13 0.13 0.16 0.15 0.14 0.15 0.16 0.15 0.15
0.01 0.01 0.01 0.01 0.01 0.01 0.01 0.01 0.01 0.01 0.01 0.01 0.01 0.00 0.01 0.01 0.01 0.02 0.02 0.02 0.02 0.02 0.04 0.06 0.06 0.06 0.06 0.07 0.08 0.11 0.12 0.12 0.12 0.12 0.12 0.14 0.14 0.13 0.12 0.12 0.11 0.08 0.07
0.01 0.01 0.01 0.02 0.01 0.01 0.01 0.01 0.01 0.01 0.01 0.01 0.01 0.01 0.00 0.00 0.00 0.01 0.01 0.02 0.02 0.02 0.02 0.04 0.07 0.08 0.10 0.11 0.12 0.13 0.14 0.16 0.18 0.18 0.17 0.16 0.15 0.16 0.13 0.10 0.08 0.06 0.06
0.01 0.02 0.01 0.01 0.01 0.01 0.01 0.01 0.01 0.02 0.01 0.01 0.01 0.01 0.01 0.01 0.01 0.01 0.01 0.02 0.02 0.02 0.02 0.02 0.04 0.06 0.07 0.09 0.10 0.11 0.11 0.12 0.12 0.13 0.15 0.16 0.15 0.15 0.14 0.13 0.13 0.11 0.09
0.02 0.02 0.02 0.02 0.01 0.01 0.01 0.01 0.01 0.01 0.02 0.02 0.01 0.01 0.01 0.01 0.02 0.02 0.03 0.03 0.03 0.03 0.03 0.04 0.05 0.06 0.07 0.09 0.09 0.09 0.08 0.08 0.09 0.09 0.09 0.11 0.13 0.13 0.12 0.10 0.09 0.10 0.10
0.04 0.03 0.03 0.03 0.03 0.02 0.01 0.01 0.01 0.01 0.01 0.01 0.02 0.02 0.01 0.02 0.02 0.02 0.02 0.03 0.04 0.04 0.04 0.05 0.06 0.06 0.07 0.07 0.08 0.08 0.08 0.08 0.08 0.07 0.07 0.08 0.10 0.09 0.08 0.06 0.06 0.07 0.08
0.06 0.05 0.05 0.05 0.04 0.03 0.02 0.01 0.01 0.02 0.02 0.03 0.02 0.03 0.03 0.03 0.03 0.03 0.02 0.02 0.03 0.03 0.03 0.03 0.03 0.03 0.03 0.05 0.06 0.06 0.06 0.06 0.05 0.05 0.06 0.07 0.07 0.06 0.06 0.06 0.07 0.07 0.07
0.08 0.07 0.06 0.05 0.04 0.03 0.02 0.02 0.01 0.02 0.02 0.02 0.02 0.03 0.03 0.03 0.03 0.04 0.03 0.02 0.02 0.02 0.02 0.02 0.03 0.03 0.03 0.03 0.03 0.04 0.04 0.04 0.04 0.05 0.06 0.06 0.06 0.06 0.06 0.06 0.06 0.05 0.05
0.06 0.05 0.04 0.03 0.02 0.02 0.02 0.02 0.02 0.03 0.04 0.04 0.03 0.03 0.03 0.03 0.03 0.04 0.04 0.03 0.02 0.03 0.03 0.04 0.04 0.04 0.03 0.03 0.04 0.05 0.06 0.07 0.07 0.07 0.08 0.08 0.08 0.07 0.06 0.06 0.05 0.05 0.04
0.04 0.03 0.02 0.02 0.03 0.03 0.02 0.03 0.03 0.03 0.04 0.04 0.05 0.04 0.04 0.03 0.03 0.03 0.03 0.04 0.04 0.04 0.04 0.04 0.04 0.03 0.03 0.04 0.05 0.07 0.09 0.10 0.10 0.09 0.09 0.09 0.09 0.08 0.08 0.08 0.07 0.06 0.04
MSLP
1011.63 1012.03 1012.41 1012.76 1013.07 1013.37 1013.69 1014.06 1014.48 1014.95 1015.46 1015.97 1016.44 1016.85 1017.17 1017.40 1017.55 1017.65 1017.74 1017.84 1018.00 1018.22 1018.49 1018.82 1019.17 1019.52 1019.85 1020.16 1020.44 1020.71 1020.96 1021.20 1021.45 1021.69 1021.90 1022.07 1022.19 1022.24 1022.22 1022.14 1022.03 1021.93 1021.85
1011.33 1011.78 1012.19 1012.55 1012.87 1013.16 1013.46 1013.80 1014.23 1014.72 1015.26 1015.83 1016.35 1016.80 1017.14 1017.36 1017.48 1017.52 1017.55 1017.59 1017.70 1017.89 1018.16 1018.50 1018.87 1019.25 1019.61 1019.93 1020.22 1020.47 1020.72 1020.97 1021.22 1021.48 1021.73 1021.96 1022.12 1022.21 1022.22 1022.16 1022.04 1021.90 1021.78
1011.01 1011.51 1011.98 1012.38 1012.71 1013.00 1013.28 1013.60 1014.01 1014.50 1015.06 1015.65 1016.21 1016.69 1017.05 1017.27 1017.36 1017.36 1017.33 1017.32 1017.38 1017.53 1017.78 1018.11 1018.49 1018.88 1019.25 1019.57 1019.86 1020.11 1020.34 1020.59 1020.85 1021.14 1021.43 1021.70 1021.92 1022.06 1022.12 1022.09 1021.98 1021.84 1021.68
1010.69 1011.27 1011.81 1012.26 1012.63 1012.91 1013.17 1013.46 1013.83 1014.30 1014.85 1015.43 1016.01 1016.50 1016.87 1017.09 1017.17 1017.15 1017.08 1017.02 1017.04 1017.15 1017.37 1017.69 1018.05 1018.44 1018.80 1019.13 1019.41 1019.65 1019.88 1020.13 1020.40 1020.70 1021.02 1021.33 1021.60 1021.80 1021.91 1021.92 1021.85 1021.71 1021.55
1010.41 1011.07 1011.69 1012.21 1012.61 1012.90 1013.14 1013.38 1013.69 1014.10 1014.60 1015.16 1015.71 1016.21 1016.58 1016.81 1016.90 1016.87 1016.79 1016.71 1016.70 1016.78 1016.97 1017.25 1017.60 1017.97 1018.33 1018.64 1018.92 1019.17 1019.40 1019.64 1019.92 1020.23 1020.57 1020.90 1021.21 1021.45 1021.60 1021.66 1021.63 1021.53 1021.40
1010.19 1010.92 1011.62 1012.21 1012.65 1012.95 1013.15 1013.34 1013.57 1013.90 1014.32 1014.82 1015.34 1015.82 1016.20 1016.44 1016.55 1016.54 1016.47 1016.39 1016.36 1016.42 1016.57 1016.83 1017.15 1017.49 1017.83 1018.15 1018.43 1018.67 1018.91 1019.17 1019.45 1019.76 1020.10 1020.45 1020.77 1021.03 1021.22 1021.33 1021.35 1021.30 1021.21
1010.04 1010.83 1011.60 1012.25 1012.72 1013.01 1013.19 1013.31 1013.45 1013.68 1014.01 1014.43 1014.90 1015.35 1015.74 1016.01 1016.15 1016.18 1016.13 1016.07 1016.03 1016.07 1016.19 1016.41 1016.69 1017.00 1017.32 1017.63 1017.91 1018.17 1018.43 1018.69 1018.98 1019.29 1019.63 1019.97 1020.29 1020.57 1020.78 1020.92 1021.00 1021.01 1020.99
1009.94 1010.78 1011.60 1012.29 1012.78 1013.07 1013.21 1013.27 1013.33 1013.46 1013.69 1014.04 1014.45 1014.87 1015.26 1015.55 1015.73 1015.80 1015.80 1015.75 1015.71 1015.72 1015.80 1015.97 1016.19 1016.47 1016.76 1017.05 1017.34 1017.61 1017.89 1018.17 1018.47 1018.79 1019.12 1019.45 1019.77 1020.05 1020.28 1020.46 1020.59 1020.68 1020.74
1009.90 1010.75 1011.60 1012.31 1012.81 1013.10 1013.20 1013.21 1013.20 1013.25 1013.41 1013.68 1014.04 1014.44 1014.83 1015.14 1015.36 1015.47 1015.49 1015.45 1015.39 1015.36 1015.39 1015.48 1015.63 1015.84 1016.09 1016.36 1016.64 1016.93 1017.23 1017.54 1017.86 1018.20 1018.53 1018.86 1019.17 1019.46 1019.71 1019.93 1020.13 1020.31 1020.47
1009.90 1010.75 1011.59 1012.30 1012.80 1013.08 1013.18 1013.15 1013.11 1013.11 1013.22 1013.44 1013.77 1014.15 1014.53 1014.85 1015.08 1015.21 1015.23 1015.17 1015.08 1014.98 1014.92 1014.91 1014.96 1015.09 1015.27 1015.50 1015.77 1016.08 1016.40 1016.75 1017.11 1017.47 1017.83 1018.17 1018.50 1018.81 1019.09 1019.37 1019.64 1019.91 1020.19
1009.95 1010.77 1011.58 1012.27 1012.77 1013.05 1013.15 1013.13 1013.09 1013.08 1013.18 1013.38 1013.69 1014.05 1014.42 1014.74 1014.96 1015.07 1015.06 1014.95 1014.77 1014.58 1014.39 1014.25 1014.19 1014.20 1014.29 1014.47 1014.72 1015.02 1015.38 1015.77 1016.18 1016.59 1017.00 1017.39 1017.75 1018.10 1018.45 1018.79 1019.15 1019.53 1019.93
1010.06 1010.83 1011.59 1012.25 1012.73 1013.02 1013.15 1013.18 1013.18 1013.21 1013.33 1013.54 1013.84 1014.19 1014.54 1014.82 1015.00 1015.06 1014.97 1014.78 1014.50 1014.17 1013.84 1013.55 1013.34 1013.22 1013.21 1013.32 1013.53 1013.83 1014.22 1014.66 1015.13 1015.61 1016.08 1016.54 1016.98 1017.41 1017.83 1018.27 1018.73 1019.22 1019.74
1010.23 1010.93 1011.64 1012.25 1012.72 1013.04 1013.22 1013.32 1013.39 1013.50 1013.67 1013.92 1014.23 1014.56 1014.87 1015.10 1015.20 1015.17 1014.99 1014.68 1014.27 1013.79 1013.31 1012.87 1012.51 1012.26 1012.14 1012.16 1012.33 1012.62 1013.03 1013.51 1014.05 1014.61 1015.18 1015.73 1016.27 1016.79 1017.32 1017.86 1018.43 1019.04 1019.67
1010.44 1011.08 1011.72 1012.29 1012.75 1013.10 1013.35 1013.55 1013.72 1013.92 1014.17 1014.47 1014.79 1015.10 1015.36 1015.51 1015.53 1015.39 1015.10 1014.66 1014.12 1013.51 1012.89 1012.30 1011.80 1011.43 1011.20 1011.15 1011.27 1011.55 1011.97 1012.50 1013.10 1013.75 1014.41 1015.07 1015.71 1016.35 1016.99 1017.64 1018.32 1019.03 1019.76
1010.67 1011.24 1011.82 1012.35 1012.81 1013.20 1013.53 1013.83 1014.12 1014.43 1014.76 1015.11 1015.44 1015.73 1015.93 1016.01 1015.93 1015.69 1015.28 1014.74 1014.08 1013.37 1012.63 1011.94 1011.34 1010.87 1010.57 1010.45 1010.53 1010.79 1011.21 1011.77 1012.42 1013.14 1013.89 1014.65 1015.41 1016.15 1016.90 1017.66 1018.44 1019.23 1020.04
1010.85 1011.37 1011.89 1012.39 1012.86 1013.30 1013.71 1014.12 1014.53 1014.94 1015.36 1015.75 1016.09 1016.35 1016.50 1016.50 1016.34 1016.01 1015.53 1014.91 1014.20 1013.42 1012.63 1011.89 1011.24 1010.71 1010.36 1010.20 1010.24 1010.47 1010.89 1011.46 1012.15 1012.92 1013.74 1014.58 1015.42 1016.26 1017.10 1017.95 1018.80 1019.65 1020.51
1010.92 1011.40 1011.89 1012.38 1012.86 1013.35 1013.85 1014.36 1014.87 1015.38 1015.86 1016.30 1016.65 1016.89 1017.00 1016.94 1016.73 1016.35 1015.83 1015.20 1014.48 1013.71 1012.93 1012.19 1011.54 1011.02 1010.65 1010.46 1010.48 1010.69 1011.08 1011.65 1012.34 1013.13 1013.98 1014.87 1015.77 1016.68 1017.58 1018.48 1019.37 1020.26 1021.13
1010.84 1011.30 1011.77 1012.26 1012.78 1013.32 1013.89 1014.49 1015.09 1015.68 1016.23 1016.70 1017.06 1017.29 1017.37 1017.30 1017.07 1016.69 1016.20 1015.60 1014.94 1014.24 1013.54 1012.87 1012.28 1011.80 1011.45 1011.26 1011.26 1011.44 1011.80 1012.33 1013.00 1013.77 1014.62 1015.52 1016.44 1017.37 1018.29 1019.21 1020.11 1020.99 1021.84
1010.59 1011.05 1011.53 1012.04 1012.59 1013.18 1013.83 1014.50 1015.18 1015.84 1016.43 1016.93 1017.31 1017.54 1017.63 1017.57 1017.37 1017.05 1016.63 1016.13 1015.58 1015.01 1014.44 1013.89 1013.39 1012.98 1012.68 1012.51 1012.50 1012.65 1012.96 1013.44 1014.05 1014.77 1015.58 1016.44 1017.34 1018.25 1019.16 1020.05 1020.93 1021.78 1022.59
1010.19 1010.67 1011.18 1011.72 1012.31 1012.97 1013.67 1014.41 1015.15 1015.86 1016.49 1017.02 1017.42 1017.69 1017.81 1017.79 1017.66 1017.43 1017.13 1016.78 1016.38 1015.97 1015.55 1015.15 1014.78 1014.46 1014.21 1014.07 1014.05 1014.17 1014.43 1014.84 1015.37 1016.02 1016.75 1017.55 1018.38 1019.24 1020.09 1020.94 1021.76 1022.55 1023.31
1009.71 1010.23 1010.77 1011.36 1012.01 1012.72 1013.48 1014.27 1015.05 1015.79 1016.46 1017.02 1017.46 1017.77 1017.95 1018.01 1017.98 1017.88 1017.72 1017.52 1017.30 1017.06 1016.81 1016.55 1016.30 1016.08 1015.90 1015.78 1015.76 1015.84 1016.05 1016.38 1016.83 1017.39 1018.03 1018.74 1019.48 1020.26 1021.03 1021.80 1022.55 1023.28 1023.96
1009.25 1009.81 1010.40 1011.04 1011.74 1012.49 1013.29 1014.12 1014.93 1015.70 1016.40 1017.00 1017.48 1017.84 1018.09 1018.25 1018.34 1018.37 1018.37 1018.34 1018.28 1018.21 1018.11 1017.98 1017.85 1017.71 1017.58 1017.49 1017.47 1017.52 1017.68 1017.94 1018.31 1018.77 1019.32 1019.93 1020.58 1021.25 1021.94 1022.62 1023.29 1023.93 1024.55
1008.90 1009.50 1010.13 1010.82 1011.55 1012.34 1013.17 1014.02 1014.85 1015.64 1016.36 1016.99 1017.51 1017.94 1018.28 1018.54 1018.75 1018.91 1019.05 1019.17 1019.26 1019.32 1019.35 1019.33 1019.29 1019.22 1019.14 1019.08 1019.05 1019.09 1019.20 1019.41 1019.71 1020.10 1020.56 1021.07 1021.63 1022.21 1022.80 1023.39 1023.97 1024.53 1025.08
1008.73 1009.37 1010.03 1010.75 1011.51 1012.31 1013.15 1014.00 1014.84 1015.63 1016.36 1017.01 1017.58 1018.07 1018.49 1018.85 1019.17 1019.45 1019.71 1019.95 1020.16 1020.33 1020.45 1020.52 1020.54 1020.52 1020.48 1020.44 1020.43 1020.46 1020.56 1020.73 1020.99 1021.32 1021.71 1022.15 1022.62 1023.11 1023.61 1024.11 1024.61 1025.11 1025.59
1008.81 1009.45 1010.13 1010.85 1011.62 1012.42 1013.24 1014.08 1014.90 1015.68 1016.41 1017.08 1017.68 1018.22 1018.71 1019.15 1019.56 1019.94 1020.30 1020.63 1020.92 1021.16 1021.35 1021.47 1021.54 1021.56 1021.56 1021.55 1021.55 1021.60 1021.70 1021.87 1022.11 1022.41 1022.75 1023.14 1023.55 1023.98 1024.40 1024.83 1025.25 1025.68 1026.11
1009.12 1009.76 1010.43 1011.13 1011.88 1012.65 1013.43 1014.23 1015.01 1015.77 1016.48 1017.15 1017.77 1018.35 1018.89 1019.40 1019.88 1020.33 1020.76 1021.15 1021.50 1021.79 1022.02 1022.18 1022.28 1022.33 1022.36 1022.38 1022.42 1022.49 1022.62 1022.81 1023.05 1023.35 1023.68 1024.04 1024.42 1024.79 1025.16 1025.53 1025.90 1026.27 1026.64
Thickness
5795 5792 5787 5781 5775 5769 5764 5761 5757 5754 5750 5745 5741 5738 5735 5735 5734 5733 5732 5731 5729 5728 5727 5727 5726 5726 5726 5725 5724 5722 5720 5718 5718 5716 5714 5715 5717 5717 5717 5717 5717 5716 5715
5790 5788 5784 5779 5773 5769 5764 5760 5757 5754 5751 5748 5744 5741 5738 5735 5735 5733 5732 5731 5729 5728 5727 5727 5727 5726 5726 5724 5723 5722 5719 5718 5718 5715 5710 5708 5710 5714 5717 5717 5717 5717 5715
5790 5788 5784 5780 5774 5768 5764 5762 5757 5754 5751 5748 5744 5740 5736 5734 5732 5731 5731 5731 5730 5729 5729 5728 5727 5727 5726 5724 5723 5723 5720 5717 5716 5717 5713 5707 5704 5709 5713 5716 5717 5717 5716
5791 5787 5783 5778 5775 5772 5767 5763 5758 5754 5751 5747 5744 5740 5737 5733 5734 5733 5732 5731 5730 5730 5729 5729 5728 5727 5726 5726 5725 5724 5722 5720 5716 5715 5716 5715 5713 5708 5706 5711 5714 5715 5714
5791 5786 5783 5780 5776 5772 5767 5763 5759 5754 5751 5748 5745 5741 5738 5736 5735 5734 5732 5731 5730 5730 5730 5729 5728 5728 5727 5726 5726 5724 5723 5721 5719 5716 5715 5713 5712 5711 5707 5705 5708 5710 5712
5790 5786 5783 5779 5774 5770 5767 5763 5758 5754 5751 5748 5745 5741 5738 5735 5733 5732 5730 5729 5729 5729 5729 5729 5728 5727 5727 5726 5725 5724 5723 5721 5720 5719 5717 5715 5712 5710 5707 5704 5704 5705 5707
5787 5784 5780 5775 5771 5768 5765 5762 5757 5753 5751 5748 5745 5742 5739 5736 5734 5732 5731 5729 5728 5728 5729 5728 5728 5727 5727 5726 5725 5724 5722 5721 5720 5719 5717 5717 5716 5714 5710 5706 5703 5702 5703
5784 5782 5779 5774 5770 5767 5764 5760 5756 5752 5750 5747 5744 5742 5739 5736 5734 5733 5732 5731 5730 5730 5729 5728 5727 5727 5727 5726 5724 5723 5722 5720 5719 5718 5717 5716 5715 5714 5711 5708 5703 5698 5698
5781 5779 5776 5772 5769 5765 5762 5759 5754 5752 5749 5747 5744 5741 5738 5736 5734 5733 5732 5731 5730 5729 5728 5727 5726 5726 5726 5725 5723 5721 5721 5720 5718 5717 5715 5714 5713 5712 5711 5709 5707 5701 5694
5778 5776 5773 5770 5767 5764 5761 5758 5754 5751 5748 5746 5743 5740 5738 5736 5734 5733 5731 5730 5729 5728 5727 5726 5725 5724 5724 5723 5722 5720 5719 5718 5716 5715 5713 5711 5710 5709 5707 5706 5704 5702 5698
5776 5773 5771 5768 5765 5762 5759 5755 5752 5749 5746 5744 5741 5739 5737 5736 5734 5732 5731 5730 5728 5727 5726 5724 5723 5723 5722 5721 5719 5718 5717 5715 5713 5712 5710 5708 5707 5706 5704 5702 5700 5698 5695
5775 5771 5769 5765 5762 5759 5756 5754 5750 5747 5745 5742 5740 5737 5736 5735 5733 5732 5730 5729 5727 5726 5724 5723 5721 5720 5720 5718 5717 5715 5714 5712 5710 5708 5706 5704 5703 5701 5699 5698 5696 5694 5691
5772 5769 5766 5763 5760 5757 5754 5752 5749 5746 5743 5741 5738 5736 5734 5733 5731 5730 5729 5728 5726 5724 5723 5721 5719 5718 5717 5715 5714 5712 5711 5709 5707 5705 5702 5700 5698 5696 5695 5693 5691 5689 5687
5770 5766 5762 5760 5758 5756 5752 5749 5747 5745 5742 5740 5737 5734 5732 5731 5730 5728 5727 5726 5724 5722 5720 5719 5717 5715 5713 5711 5710 5708 5707 5705 5703 5700 5698 5697 5695 5692 5690 5688 5685 5683 5679
5766 5763 5760 5757 5756 5753 5749 5746 5744 5743 5741 5737 5733 5731 5729 5729 5727 5725 5724 5722 5720 5718 5716 5714 5713 5711 5709 5707 5705 5704 5702 5700 5697 5694 5692 5691 5689 5687 5686 5683 5680 5676 5672
5764 5762 5759 5755 5753 5750 5746 5743 5741 5740 5737 5733 5730 5728 5726 5725 5723 5721 5720 5718 5716 5714 5712 5710 5708 5706 5705 5703 5701 5699 5696 5693 5690 5687 5684 5682 5680 5679 5677 5674 5671 5669 5664
5763 5760 5757 5753 5750 5748 5745 5741 5738 5735 5732 5729 5726 5723 5722 5719 5717 5716 5714 5712 5710 5709 5707 5704 5702 5700 5698 5697 5695 5693 5690 5686 5683 5681 5678 5675 5672 5670 5667 5663 5660 5657 5654
5762 5758 5755 5751 5748 5745 5742 5738 5734 5731 5727 5724 5721 5719 5717 5714 5712 5710 5708 5706 5704 5702 5700 5698 5696 5694 5691 5690 5688 5685 5682 5678 5675 5672 5670 5666 5662 5660 5658 5653 5648 5643 5640
5762 5758 5754 5750 5745 5741 5738 5733 5729 5726 5722 5719 5716 5714 5712 5709 5707 5704 5702 5700 5698 5695 5693 5691 5688 5686 5683 5681 5680 5678 5674 5669 5665 5661 5659 5656 5653 5649 5647 5643 5636 5630 5625
5756 5753 5749 5745 5740 5736 5733 5728 5723 5720 5716 5714 5711 5709 5706 5703 5701 5698 5695 5693 5690 5687 5685 5682 5680 5678 5675 5672 5671 5670 5666 5661 5655 5651 5648 5645 5642 5638 5635 5631 5626 5619 5612
5750 5746 5743 5738 5735 5731 5727 5722 5718 5714 5712 5709 5706 5702 5699 5697 5693 5690 5688 5685 5682 5679 5676 5673 5670 5668 5666 5663 5662 5660 5657 5652 5646 5641 5636 5632 5630 5626 5623 5620 5615 5608 5601
5741 5738 5734 5730 5727 5724 5720 5716 5712 5709 5706 5703 5699 5695 5692 5689 5686 5683 5680 5677 5674 5671 5667 5664 5660 5657 5655 5653 5650 5648 5646 5643 5638 5632 5627 5622 5618 5614 5611 5606 5601 5595 5590
5733 5730 5726 5721 5717 5715 5713 5709 5705 5702 5699 5695 5692 5688 5684 5681 5678 5675 5672 5669 5666 5663 5659 5655 5651 5647 5644 5641 5639 5637 5634 5631 5627 5621 5616 5611 5607 5602 5598 5593 5588 5584 5578
5724 5721 5717 5712 5708 5705 5703 5701 5698 5695 5692 5688 5683 5680 5676 5672 5669 5666 5663 5660 5657 5654 5650 5647 5642 5638 5634 5631 5629 5626 5623 5619 5615 5609 5604 5599 5594 5590 5584 5579 5575 5571 5566
5712 5711 5707 5703 5699 5696 5694 5691 5689 5686 5683 5679 5675 5671 5667 5663 5658 5654 5651 5649 5647 5645 5642 5639 5635 5631 5627 5623 5621 5618 5613 5609 5605 5599 5593 5587 5582 5577 5572 5566 5561 5557 5553
5700 5698 5695 5692 5689 5686 5683 5680 5678 5677 5674 5669 5665 5661 5657 5654 5649 5645 5639 5635 5634 5633 5631 5629 5626 5622 5619 5614 5611 5607 5603 5598 5594 5590 5583 5576 5571 5566 5561 5555 5549 5544 5539